#timestamp,LO_Frequency,Hit,StdDev 
1569024015.7,286046999.0,N
1569024035.6,286046999.2,N
1569024055.4,286046997.4,N
1569024075.2,286046997.1,N
1569024095.1,286046997.6,N
1569024096.0,286046997.6,N
1569024115.8,286046995.3,Y
1569024135.7,286046996.8,P
1569024155.5,286046997.2,P
1569024175.3,286046995.3,P
1569024195.2,286046995.5,Y
1569024215.0,286046999.5,P
1569024215.9,286046999.5,N
1569024235.8,286046997.0,N
1569024255.6,286046997.1,N
1569024275.4,286046997.6,N
1569024295.3,286046997.1,N
1569024315.1,286046995.0,Y
1569024335.9,286046998.3,P
1569024355.7,286046998.1,P
1569024375.5,286047002.6,P
1569024395.4,286047002.1,N
1569024415.2,286047002.8,N
1569024435.0,286047002.8,N
1569024436.0,286047002.8,N
1569024455.8,286046998.2,N
1569024475.6,286046998.7,N
1569024495.5,286046999.9,N
1569024515.3,286047001.1,N
1569024535.1,286046998.1,N
1569024555.9,286047001.0,N
1569024575.7,286047002.2,N
1569024595.6,286047000.8,N
1569024615.4,286046998.6,N
1569024635.2,286046999.3,N
1569024655.1,286046998.8,N
1569024656.0,286046998.8,N
1569024675.8,286046999.5,N
1569024695.6,286046998.4,N
1569024715.5,286046998.4,N
1569024735.3,286046999.2,N
1569024755.2,286046999.6,N
1569024775.9,286046998.8,N
1569024795.7,286046999.2,N
1569024815.6,286046998.9,N
1569024835.4,286046998.7,N
1569024855.3,286046998.2,N
1569024875.1,286047000.6,N
1569024876.0,286047000.6,N
1569024895.8,286046998.3,N
1569024915.7,286046998.6,N
1569024935.5,286047000.8,N
1569024955.3,286047000.3,N
1569024975.2,286047000.2,N
1569024995.0,286047001.8,N
1569024995.9,286047001.8,N
1569025015.8,286047001.8,N
1569025035.6,286046999.9,N
1569025055.4,286047001.0,N
1569025075.3,286047000.8,N
1569025095.1,286046998.5,N
1569025115.9,286046998.5,N
1569025135.7,286046999.9,N
1569025155.5,286046998.4,N
1569025175.4,286047000.8,N
1569025195.2,286047000.0,N
1569025215.1,286047001.9,N
1569025216.0,286047001.9,N
1569025235.8,286047002.0,N
1569025255.6,286047004.1,Y
1569025275.5,286047003.2,P
1569025295.3,286047003.5,N
1569025315.2,286047005.9,P
1569025335.9,286047005.7,N
1569025355.7,286047004.2,N
1569025375.6,286047001.9,N
1569025395.4,286047000.1,N
1569025415.2,286047001.6,N
1569025435.1,286047001.4,N
1569025436.0,286047001.4,N
1569025455.8,286047002.2,N
1569025475.7,286047004.2,N
1569025495.5,286047001.9,N
1569025515.3,286047002.1,N
1569025535.2,286047002.0,N
1569025555.0,286047002.6,N
1569025555.9,286047002.6,N
1569025575.7,286046999.9,N
1569025595.6,286047000.9,N
1569025615.4,286047000.6,N
1569025635.3,286047000.7,N
1569025655.1,286047002.7,N
1569025675.8,286047000.0,N
1569025695.7,286047002.7,N
1569025715.5,286047002.6,N
1569025735.4,286046999.8,N
1569025755.2,286047001.8,N
1569025775.0,286047001.3,N
1569025775.9,286047001.3,N
1569025795.8,286047001.6,N
1569025815.6,286047002.2,N
1569025835.5,286047002.3,N
1569025855.3,286047004.4,N
1569025875.1,286047003.2,N
1569025895.9,286047003.8,Y
1569025915.7,286047003.9,P
1569025935.5,286047002.2,N
1569025955.4,286047001.6,N
1569025975.2,286047001.4,N
1569025995.1,286047004.4,Y
1569025996.0,286047004.4,P
1569026015.8,286047001.1,N
1569026035.7,286047001.0,N
1569026055.5,286046998.6,N
1569026075.3,286046999.0,N
1569026095.2,286046999.4,N
1569026115.0,286046996.5,N
1569026115.9,286046996.5,N
1569026135.7,286046996.9,N
1569026155.6,286046999.5,N
1569026175.4,286047000.6,N
1569026195.3,286046999.6,N
1569026215.1,286046999.6,N
1569026216.0,286046999.6,N
1569026235.8,286046999.0,N
1569026255.7,286046998.5,N
1569026275.5,286047001.6,N
1569026295.4,286047004.3,N
1569026315.2,286047001.9,N
1569026335.0,286047004.4,N
1569026335.9,286047004.4,N
1569026355.8,286047002.4,N
1569026375.6,286046999.7,N
1569026395.4,286047002.6,N
1569026415.3,286046998.2,N
1569026435.1,286047000.4,N
1569026455.9,286047000.3,N
1569026475.7,286046998.7,N
1569026495.5,286046998.4,N
1569026515.4,286046998.4,N
1569026535.2,286046999.0,N
1569026555.0,286046999.0,N
1569026556.0,286046999.0,N
1569026575.8,286046998.6,N
1569026595.6,286046998.6,N
1569026615.5,286046998.6,N
1569026635.3,286046999.7,N
1569026655.1,286047001.4,N
1569026675.9,286047004.2,N
1569026695.8,286047004.3,N
1569026715.7,286047003.7,N
1569026735.5,286047002.8,N
1569026755.4,286047000.6,N
1569026775.2,286047000.3,N
1569026795.0,286047002.3,N
1569026795.9,286047002.3,N
1569026815.8,286047000.4,N
1569026835.6,286047000.2,N
1569026855.5,286047001.9,N
1569026875.3,286047002.0,N
1569026895.1,286047001.3,N
1569026915.9,286047002.3,N
1569026935.7,286047002.7,N
1569026955.5,286047000.1,N
1569026975.4,286047000.0,N
1569026995.2,286047000.9,N
1569027015.1,286047001.1,N
1569027016.0,286047001.1,N
1569027035.8,286046998.3,N
1569027055.6,286046998.2,N
1569027075.5,286046999.0,N
1569027095.3,286047001.2,N
1569027115.1,286047000.3,N
1569027135.9,286047001.1,N
1569027155.7,286047000.8,N
1569027175.6,286047000.9,N
1569027195.4,286047000.0,N
1569027215.3,286047000.0,N
1569027235.1,286047002.1,N
1569027236.0,286047002.1,N
1569027255.8,286046999.8,N
1569027275.7,286047002.6,N
1569027295.5,286047002.4,N
1569027315.3,286047002.8,N
1569027335.2,286047001.9,N
1569027355.0,286047003.4,N
1569027355.9,286047003.4,N
1569027375.8,286047003.8,N
1569027395.6,286047003.8,N
1569027415.4,286047006.0,Y
1569027435.3,286047002.9,P
1569027455.1,286047005.4,P
1569027475.9,286047005.1,P
1569027495.7,286047005.6,Y
1569027515.5,286047000.2,P
1569027535.4,286046998.6,N
1569027555.2,286046998.8,N
1569027575.1,286046997.9,N
1569027576.0,286046997.9,N
1569027595.8,286046997.1,N
